| time (UTC) | temp C | wind direction | speed KPH | gust KPH | rain 1hr cm | rain 24hr cm | rain mn cm | humidity % | barometer mb |
| 20260906101704 | 20 | 274 | 1.6 | 3.2 | 0.00 | 0.03 | 0.00 | 94 | 1014.7 |
| 20260906101204 | 20 | 13 | 1.6 | 3.2 | 0.00 | 0.03 | 0.00 | 94 | 1014.7 |
| 20260906100703 | 20 | 338 | 0.0 | 1.6 | 0.00 | 0.03 | 0.00 | 94 | 1014.7 |
| 20260906100203 | 20 | 303 | 1.6 | 1.6 | 0.00 | 0.03 | 0.00 | 94 | 1014.7 |
| 20260906095703 | 20 | 330 | 1.6 | 1.6 | 0.00 | 0.03 | 0.00 | 94 | 1014.7 |
| 20260906095204 | 20 | 2 | 1.6 | 1.6 | 0.00 | 0.03 | 0.00 | 94 | 1014.7 |
| 20260906094703 | 20 | 333 | 0.0 | 1.6 | 0.00 | 0.03 | 0.00 | 94 | 1014.6 |
| 20260906094203 | 20 | 303 | 1.6 | 1.6 | 0.00 | 0.03 | 0.00 | 94 | 1014.7 |
| 20260906093703 | 20 | 285 | 1.6 | 1.6 | 0.00 | 0.03 | 0.00 | 94 | 1014.6 |
| 20260906093203 | 20 | 212 | 0.0 | 1.6 | 0.00 | 0.03 | 0.00 | 94 | 1014.5 |
| 20260906092703 | 20 | 320 | 0.0 | 1.6 | 0.00 | 0.03 | 0.00 | 94 | 1014.4 |
| 20260906091704 | 20 | 29 | 0.0 | 1.6 | 0.00 | 0.03 | 0.00 | 94 | 1014.4 |
| 20260906091203 | 20 | 204 | 0.0 | 1.6 | 0.00 | 0.03 | 0.00 | 94 | 1014.3 |
| 20260906090703 | 20 | 13 | 0.0 | 1.6 | 0.00 | 0.03 | 0.00 | 94 | 1014.3 |
| 20260906090203 | 20 | 248 | 0.0 | 1.6 | 0.00 | 0.03 | 0.00 | 94 | 1014.2 |
| 20260906085704 | 20 | 96 | 0.0 | 1.6 | 0.00 | 0.03 | 0.00 | 94 | 1014.2 |
| 20260906085204 | 20 | 159 | 1.6 | 3.2 | 0.00 | 0.03 | 0.00 | 94 | 1014.3 |
| 20260906084203 | 20 | 235 | 0.0 | 3.2 | 0.00 | 0.03 | 0.00 | 94 | 1014.5 |
| 20260906083703 | 20 | 331 | 0.0 | 3.2 | 0.00 | 0.03 | 0.00 | 94 | 1014.4 |
| 20260906083204 | 20 | 106 | 0.0 | 3.2 | 0.00 | 0.03 | 0.00 | 94 | 1014.4 |
| 20260906082704 | 20 | 164 | 0.0 | 3.2 | 0.00 | 0.03 | 0.00 | 94 | 1014.5 |
| 20260906082204 | 20 | 21 | 0.0 | 1.6 | 0.00 | 0.03 | 0.00 | 94 | 1014.5 |
| 20260906081703 | 20 | 247 | 0.0 | 3.2 | 0.00 | 0.03 | 0.00 | 94 | 1014.5 |
| 20260906081203 | 20 | 162 | 1.6 | 3.2 | 0.00 | 0.03 | 0.00 | 94 | 1014.5 |
| 20260906080703 | 20 | 194 | 1.6 | 3.2 | 0.00 | 0.03 | 0.00 | 93 | 1014.5 |
| 20260906080203 | 20 | 213 | 0.0 | 1.6 | 0.00 | 0.03 | 0.00 | 94 | 1014.6 |
| 20260906075703 | 20 | 322 | 0.0 | 1.6 | 0.00 | 0.03 | 0.00 | 94 | 1014.5 |
| 20260906075204 | 20 | 282 | 0.0 | 3.2 | 0.00 | 0.03 | 0.00 | 94 | 1014.5 |
| 20260906074203 | 20 | 305 | 0.0 | 1.6 | 0.00 | 0.03 | 0.00 | 93 | 1014.6 |
| 20260906073703 | 21 | 310 | 1.6 | 1.6 | 0.00 | 0.03 | 0.00 | 93 | 1014.6 |
| 20260906073203 | 21 | 325 | 0.0 | 3.2 | 0.00 | 0.03 | 0.00 | 93 | 1014.7 |
| 20260906072704 | 21 | 326 | 0.0 | 1.6 | 0.00 | 0.03 | 0.00 | 93 | 1014.7 |
| 20260906072204 | 21 | 309 | 0.0 | 1.6 | 0.00 | 0.03 | 0.00 | 93 | 1014.7 |
| 20260906071204 | 21 | 24 | 0.0 | 1.6 | 0.00 | 0.03 | 0.00 | 93 | 1014.9 |
| 20260906070704 | 21 | 317 | 0.0 | 1.6 | 0.00 | 0.03 | 0.00 | 93 | 1014.9 |
| 20260906070203 | 21 | 128 | 0.0 | 1.6 | 0.00 | 0.03 | 0.00 | 93 | 1014.7 |
| 20260906065704 | 21 | 24 | 0.0 | 3.2 | 0.00 | 0.03 | 0.00 | 93 | 1014.7 |
| 20260906065203 | 21 | 328 | 1.6 | 3.2 | 0.00 | 0.03 | 0.00 | 93 | 1014.8 |
| 20260906064703 | 21 | 313 | 1.6 | 3.2 | 0.00 | 0.03 | 0.00 | 93 | 1014.7 |
| 20260906063703 | 21 | 150 | 1.6 | 3.2 | 0.00 | 0.03 | 0.00 | 93 | 1014.8 |
| 20260906063203 | 21 | 130 | 1.6 | 3.2 | 0.00 | 0.03 | 0.00 | 93 | 1014.7 |
| 20260906062704 | 21 | 160 | 0.0 | 1.6 | 0.00 | 0.03 | 0.00 | 93 | 1014.9 |
| 20260906062203 | 21 | 203 | 0.0 | 3.2 | 0.00 | 0.03 | 0.00 | 93 | 1015.0 |
| 20260906061703 | 21 | 298 | 1.6 | 3.2 | 0.00 | 0.03 | 0.00 | 93 | 1015.0 |
| 20260906060703 | 21 | 205 | 1.6 | 3.2 | 0.00 | 0.03 | 0.00 | 93 | 1015.1 |
| 20260906060204 | 21 | 204 | 0.0 | 1.6 | 0.00 | 0.03 | 0.00 | 93 | 1015.2 |
| 20260906055704 | 21 | 326 | 1.6 | 3.2 | 0.00 | 0.03 | 0.00 | 93 | 1015.1 |
| 20260906055204 | 21 | 130 | 0.0 | 1.6 | 0.00 | 0.03 | 0.00 | 93 | 1015.2 |
| 20260906054703 | 21 | 1 | 1.6 | 3.2 | 0.00 | 0.03 | 0.00 | 92 | 1015.4 |
| 20260906054203 | 21 | 35 | 1.6 | 3.2 | 0.00 | 0.03 | 0.00 | 92 | 1015.4 |
| 20260906053703 | 21 | 309 | 1.6 | 3.2 | 0.00 | 0.03 | 0.00 | 92 | 1015.3 |
| 20260906053204 | 21 | 30 | 0.0 | 3.2 | 0.00 | 0.03 | 0.00 | 92 | 1015.3 |
| 20260906052704 | 21 | 203 | 1.6 | 3.2 | 0.00 | 0.03 | 0.00 | 92 | 1015.4 |
| 20260906051203 | 21 | 291 | 0.0 | 1.6 | 0.00 | 0.03 | 0.00 | 92 | 1015.5 |
| 20260906050704 | 21 | 69 | 0.0 | 1.6 | 0.00 | 0.03 | 0.00 | 92 | 1015.7 |
| 20260906045704 | 21 | 290 | 0.0 | 1.6 | 0.00 | 0.03 | 0.00 | 92 | 1015.7 |
| 20260906045203 | 21 | 334 | 1.6 | 3.2 | 0.00 | 0.03 | 0.00 | 92 | 1015.7 |
| 20260906044703 | 21 | 200 | 1.6 | 3.2 | 0.00 | 0.03 | 0.00 | 92 | 1015.7 |
| 20260906044203 | 21 | 233 | 0.0 | 3.2 | 0.00 | 0.03 | 0.00 | 92 | 1015.6 |
| 20260906043703 | 21 | 263 | 1.6 | 3.2 | 0.00 | 0.03 | 0.00 | 92 | 1015.5 |
| 20260906043203 | 21 | 233 | 0.0 | 3.2 | 0.00 | 0.03 | 0.00 | 91 | 1015.4 |
| 20260906042704 | 22 | 182 | 1.6 | 1.6 | 0.00 | 0.03 | 0.00 | 91 | 1015.3 |
| 20260906042203 | 22 | 163 | 1.6 | 3.2 | 0.00 | 0.03 | 0.00 | 91 | 1015.3 |
| 20260906041703 | 22 | 221 | 0.0 | 3.2 | 0.00 | 0.03 | 0.00 | 91 | 1015.3 |
| 20260906041204 | 22 | 312 | 0.0 | 3.2 | 0.00 | 0.03 | 0.00 | 91 | 1015.3 |
| 20260906040704 | 22 | 197 | 0.0 | 1.6 | 0.00 | 0.03 | 0.00 | 91 | 1015.4 |
| 20260906040203 | 22 | 63 | 0.0 | 3.2 | 0.00 | 0.03 | 0.00 | 91 | 1015.5 |
| 20260906035704 | 22 | 43 | 1.6 | 3.2 | 0.00 | 0.03 | 0.03 | 91 | 1015.5 |
| 20260906035204 | 22 | 224 | 1.6 | 3.2 | 0.00 | 0.03 | 0.03 | 90 | 1015.4 |
| 20260906034203 | 22 | 130 | 1.6 | 1.6 | 0.00 | 0.03 | 0.03 | 90 | 1015.4 |
| 20260906033704 | 22 | 291 | 0.0 | 1.6 | 0.00 | 0.03 | 0.03 | 90 | 1015.5 |
| 20260906033204 | 22 | 255 | 0.0 | 3.2 | 0.00 | 0.03 | 0.03 | 90 | 1015.7 |
| 20260906032704 | 22 | 202 | 1.6 | 4.8 | 0.00 | 0.03 | 0.03 | 90 | 1015.7 |
| 20260906031204 | 22 | 30 | 0.0 | 1.6 | 0.00 | 0.03 | 0.03 | 89 | 1015.9 |
| 20260906030703 | 22 | 196 | 1.6 | 3.2 | 0.00 | 0.03 | 0.03 | 89 | 1015.7 |
| 20260906025703 | 22 | 219 | 0.0 | 1.6 | 0.00 | 0.03 | 0.03 | 89 | 1015.6 |
| 20260906025204 | 23 | 246 | 0.0 | 1.6 | 0.00 | 0.03 | 0.03 | 89 | 1015.6 |
| 20260906024704 | 23 | 111 | 1.6 | 3.2 | 0.00 | 0.03 | 0.03 | 89 | 1015.5 |
| 20260906024203 | 23 | 335 | 0.0 | 1.6 | 0.00 | 0.03 | 0.03 | 88 | 1015.6 |
| 20260906023704 | 23 | 176 | 1.6 | 3.2 | 0.00 | 0.03 | 0.03 | 88 | 1015.7 |
| 20260906023204 | 23 | 183 | 0.0 | 1.6 | 0.00 | 0.03 | 0.03 | 88 | 1015.8 |
| 20260906022203 | 23 | 269 | 0.0 | 3.2 | 0.00 | 0.03 | 0.03 | 87 | 1015.6 |
| 20260906021704 | 23 | 308 | 0.0 | 1.6 | 0.00 | 0.03 | 0.03 | 87 | 1015.5 |
| 20260906020703 | 23 | 259 | 0.0 | 1.6 | 0.00 | 0.03 | 0.03 | 87 | 1015.6 |
| 20260906020203 | 23 | 1 | 0.0 | 1.6 | 0.00 | 0.03 | 0.03 | 87 | 1015.6 |
| 20260906015704 | 23 | 43 | 1.6 | 3.2 | 0.00 | 0.03 | 0.03 | 86 | 1015.6 |
| 20260906015203 | 23 | 339 | 0.0 | 1.6 | 0.00 | 0.03 | 0.03 | 85 | 1015.5 |
| 20260906014703 | 24 | 307 | 1.6 | 1.6 | 0.00 | 0.03 | 0.03 | 86 | 1015.3 |
| 20260906014203 | 24 | 31 | 0.0 | 3.2 | 0.00 | 0.03 | 0.03 | 86 | 1015.3 |
| 20260906013703 | 24 | 154 | 0.0 | 3.2 | 0.00 | 0.03 | 0.03 | 85 | 1015.2 |
| 20260906013203 | 24 | 321 | 0.0 | 3.2 | 0.00 | 0.03 | 0.03 | 85 | 1015.2 |
| 20260906012704 | 24 | 133 | 0.0 | 1.6 | 0.00 | 0.03 | 0.03 | 84 | 1015.2 |
| 20260906012204 | 24 | 292 | 0.0 | 1.6 | 0.00 | 0.03 | 0.03 | 84 | 1015.2 |
| 20260906010703 | 25 | 179 | 0.0 | 1.6 | 0.00 | 0.03 | 0.03 | 82 | 1015.2 |
| 20260906005703 | 25 | 261 | 1.6 | 3.2 | 0.00 | 0.03 | 0.03 | 82 | 1015.0 |
| 20260906005204 | 25 | 303 | 0.0 | 1.6 | 0.00 | 0.03 | 0.03 | 80 | 1014.8 |
| 20260906004703 | 25 | 258 | 0.0 | 1.6 | 0.00 | 0.03 | 0.03 | 80 | 1014.9 |
| 20260906004204 | 26 | 292 | 0.0 | 1.6 | 0.00 | 0.03 | 0.03 | 80 | 1014.9 |
| 20260906003704 | 26 | 51 | 0.0 | 1.6 | 0.00 | 0.03 | 0.03 | 79 | 1014.8 |
| 20260906003203 | 26 | 285 | 0.0 | 1.6 | 0.00 | 0.03 | 0.03 | 78 | 1014.8 |
| 20260906002703 | 26 | 40 | 0.0 | 1.6 | 0.00 | 0.03 | 0.03 | 77 | 1014.7 |
| 20260906002203 | 27 | 289 | 0.0 | 1.6 | 0.00 | 0.03 | 0.03 | 76 | 1014.7 |
| 20260906001704 | 27 | 309 | 0.0 | 1.6 | 0.00 | 0.03 | 0.03 | 76 | 1014.6 |
| 20260906000703 | 27 | 255 | 0.0 | 1.6 | 0.00 | 0.03 | 0.03 | 74 | 1014.7 |
| 20260906000204 | 28 | 58 | 0.0 | 1.6 | 0.00 | 0.03 | 0.03 | 73 | 1014.6 |
| 20260905235704 | 28 | 133 | 1.6 | 3.2 | 0.00 | 0.03 | 0.03 | 73 | 1014.6 |
| 20260905235204 | 28 | 170 | 1.6 | 3.2 | 0.00 | 0.03 | 0.03 | 72 | 1014.5 |
| 20260905234703 | 28 | 260 | 0.0 | 3.2 | 0.00 | 0.03 | 0.03 | 71 | 1014.5 |
| 20260905234204 | 28 | 178 | 0.0 | 1.6 | 0.00 | 0.03 | 0.03 | 70 | 1014.5 |
| 20260905233704 | 29 | 278 | 0.0 | 1.6 | 0.00 | 0.03 | 0.03 | 69 | 1014.5 |
| 20260905233203 | 29 | 305 | 1.6 | 3.2 | 0.00 | 0.03 | 0.03 | 69 | 1014.5 |
| 20260905232204 | 29 | 247 | 3.2 | 4.8 | 0.00 | 0.03 | 0.03 | 67 | 1014.4 |
| 20260905231704 | 30 | 265 | 1.6 | 3.2 | 0.00 | 0.03 | 0.03 | 66 | 1014.4 |
| 20260905231203 | 30 | 293 | 1.6 | 3.2 | 0.00 | 0.03 | 0.03 | 66 | 1014.4 |
| 20260905230703 | 30 | 282 | 3.2 | 4.8 | 0.00 | 0.03 | 0.03 | 65 | 1014.5 |
| 20260905230203 | 30 | 215 | 3.2 | 4.8 | 0.00 | 0.05 | 0.03 | 65 | 1014.6 |
| 20260905225704 | 30 | 199 | 1.6 | 4.8 | 0.00 | 0.25 | 0.03 | 64 | 1014.8 |
| 20260905225203 | 30 | 263 | 3.2 | 4.8 | 0.00 | 0.56 | 0.03 | 64 | 1014.8 |
| 20260905224703 | 30 | 297 | 3.2 | 4.8 | 0.00 | 0.61 | 0.03 | 64 | 1014.7 |
| 20260905224203 | 30 | 308 | 1.6 | 4.8 | 0.00 | 0.61 | 0.03 | 63 | 1014.8 |
| 20260905223703 | 30 | 207 | 1.6 | 4.8 | 0.00 | 0.61 | 0.03 | 63 | 1014.8 |
| 20260905223203 | 30 | 205 | 3.2 | 4.8 | 0.00 | 0.61 | 0.03 | 63 | 1015.0 |
| 20260905222703 | 30 | 301 | 3.2 | 4.8 | 0.00 | 0.61 | 0.03 | 63 | 1015.0 |
| 20260905222204 | 30 | 301 | 3.2 | 8.0 | 0.00 | 0.61 | 0.03 | 62 | 1015.0 |
| 20260905221703 | 31 | 279 | 3.2 | 9.7 | 0.00 | 0.61 | 0.03 | 62 | 1015.1 |
| 20260905221203 | 31 | 278 | 3.2 | 4.8 | 0.00 | 0.61 | 0.03 | 62 | 1015.0 |
| 20260905220203 | 31 | 279 | 4.8 | 12.9 | 0.00 | 0.61 | 0.03 | 61 | 1015.0 |
| 20260905215703 | 31 | 255 | 3.2 | 12.9 | 0.00 | 0.61 | 0.03 | 61 | 1015.0 |
| 20260905215204 | 31 | 201 | 3.2 | 8.0 | 0.00 | 0.61 | 0.03 | 62 | 1015.0 |
| 20260905214703 | 31 | 227 | 3.2 | 12.9 | 0.00 | 0.61 | 0.03 | 62 | 1014.9 |
| 20260905214203 | 31 | 197 | 3.2 | 9.7 | 0.00 | 0.61 | 0.03 | 64 | 1014.8 |
| 20260905213203 | 31 | 111 | 1.6 | 9.7 | 0.00 | 0.61 | 0.03 | 62 | 1014.8 |
| 20260905212704 | 31 | 195 | 6.4 | 11.3 | 0.00 | 0.61 | 0.03 | 62 | 1014.8 |
| 20260905212203 | 30 | 281 | 4.8 | 9.7 | 0.00 | 0.61 | 0.03 | 63 | 1014.7 |
| 20260905211703 | 30 | 194 | 4.8 | 11.3 | 0.00 | 0.61 | 0.03 | 63 | 1014.6 |
| 20260905211203 | 30 | 258 | 4.8 | 11.3 | 0.00 | 0.61 | 0.03 | 63 | 1014.7 |
| 20260905210703 | 30 | 235 | 3.2 | 16.1 | 0.00 | 0.61 | 0.03 | 62 | 1014.8 |
| 20260905210203 | 30 | 205 | 3.2 | 12.9 | 0.00 | 0.61 | 0.03 | 64 | 1014.8 |
| 20260905205703 | 30 | 184 | 8.0 | 12.9 | 0.00 | 0.61 | 0.03 | 64 | 1014.8 |
| 20260905205203 | 30 | 276 | 8.0 | 12.9 | 0.00 | 0.61 | 0.03 | 64 | 1014.7 |
| 20260905204704 | 30 | 221 | 4.8 | 9.7 | 0.00 | 0.61 | 0.03 | 64 | 1014.9 |
| 20260905204203 | 30 | 180 | 3.2 | 11.3 | 0.00 | 0.61 | 0.03 | 64 | 1014.8 |
| 20260905203703 | 30 | 16 | 4.8 | 11.3 | 0.00 | 0.61 | 0.03 | 64 | 1014.9 |
| 20260905203204 | 30 | 285 | 6.4 | 11.3 | 0.00 | 0.61 | 0.03 | 64 | 1014.9 |
| 20260905202204 | 30 | 265 | 4.8 | 11.3 | 0.00 | 0.61 | 0.03 | 67 | 1015.0 |
| 20260905201704 | 29 | 336 | 3.2 | 4.8 | 0.00 | 0.61 | 0.03 | 68 | 1015.0 |
| 20260905201203 | 29 | 353 | 3.2 | 9.7 | 0.00 | 0.61 | 0.03 | 67 | 1015.1 |
| 20260905200204 | 29 | 339 | 3.2 | 9.7 | 0.00 | 0.61 | 0.03 | 65 | 1015.1 |
| 20260905195703 | 28 | 266 | 4.8 | 11.3 | 0.00 | 0.61 | 0.03 | 67 | 1015.1 |
| 20260905195203 | 28 | 273 | 3.2 | 11.3 | 0.00 | 0.61 | 0.03 | 68 | 1015.1 |
| 20260905194703 | 28 | 201 | 4.8 | 11.3 | 0.00 | 0.61 | 0.03 | 68 | 1015.2 |
| 20260905194203 | 28 | 198 | 6.4 | 12.9 | 0.00 | 0.61 | 0.03 | 69 | 1015.2 |
| 20260905193704 | 28 | 300 | 4.8 | 12.9 | 0.00 | 0.61 | 0.03 | 68 | 1015.4 |
| 20260905193203 | 28 | 201 | 4.8 | 11.3 | 0.00 | 0.61 | 0.03 | 68 | 1015.4 |
| 20260905192204 | 27 | 46 | 3.2 | 11.3 | 0.00 | 0.61 | 0.03 | 69 | 1015.6 |
| 20260905191704 | 28 | 35 | 3.2 | 8.0 | 0.00 | 0.61 | 0.03 | 69 | 1015.7 |
| 20260905191203 | 27 | 237 | 3.2 | 9.7 | 0.00 | 0.61 | 0.03 | 71 | 1015.7 |
| 20260905190703 | 27 | 300 | 3.2 | 8.0 | 0.00 | 0.61 | 0.03 | 72 | 1015.8 |
| 20260905190202 | 27 | 196 | 3.2 | 4.8 | 0.00 | 0.61 | 0.03 | 72 | 1015.9 |
| 20260905185202 | 26 | 309 | 1.6 | 9.7 | 0.00 | 0.61 | 0.03 | 78 | 1016.0 |
| 20260905184703 | 26 | 33 | 3.2 | 8.0 | 0.00 | 0.61 | 0.03 | 76 | 1016.2 |
| 20260905184202 | 26 | 321 | 1.6 | 4.8 | 0.00 | 0.61 | 0.03 | 75 | 1016.2 |
| 20260905183702 | 25 | 190 | 3.2 | 11.3 | 0.00 | 0.61 | 0.03 | 76 | 1016.4 |
| 20260905182703 | 25 | 113 | 3.2 | 8.0 | 0.00 | 0.61 | 0.03 | 81 | 1016.7 |
| 20260905182202 | 24 | 192 | 3.2 | 8.0 | 0.00 | 0.61 | 0.03 | 85 | 1016.8 |
| 20260905181703 | 24 | 173 | 3.2 | 12.9 | 0.00 | 0.61 | 0.03 | 87 | 1016.8 |
| 20260905180703 | 23 | 219 | 3.2 | 9.7 | 0.00 | 0.61 | 0.03 | 90 | 1017.1 |
| 20260905175703 | 22 | 189 | 3.2 | 4.8 | 0.00 | 0.61 | 0.03 | 90 | 1017.5 |
| 20260905175203 | 22 | 201 | 1.6 | 4.8 | 0.00 | 0.61 | 0.03 | 90 | 1017.6 |
| 20260905174702 | 22 | 219 | 1.6 | 3.2 | 0.00 | 0.61 | 0.03 | 90 | 1017.7 |
| 20260905174202 | 22 | 254 | 1.6 | 4.8 | 0.00 | 0.61 | 0.03 | 89 | 1018.1 |
| 20260905173703 | 22 | 175 | 1.6 | 4.8 | 0.00 | 0.61 | 0.03 | 89 | 1018.2 |
| 20260905173202 | 22 | 197 | 1.6 | 3.2 | 0.00 | 0.61 | 0.03 | 89 | 1018.1 |
| 20260905172202 | 22 | 222 | 1.6 | 3.2 | 0.00 | 0.61 | 0.03 | 88 | 1018.4 |
| 20260905171703 | 22 | 62 | 1.6 | 4.8 | 0.03 | 0.61 | 0.03 | 87 | 1018.4 |
| 20260905171202 | 22 | 173 | 1.6 | 4.8 | 0.03 | 0.61 | 0.03 | 86 | 1018.4 |
| 20260905170702 | 23 | 127 | 1.6 | 4.8 | 0.03 | 0.61 | 0.03 | 85 | 1018.3 |
| 20260905170202 | 23 | 90 | 1.6 | 4.8 | 0.03 | 0.61 | 0.03 | 84 | 1018.3 |
| 20260905165703 | 23 | 144 | 1.6 | 4.8 | 0.03 | 0.61 | 0.03 | 83 | 1018.2 |
| 20260905165203 | 23 | 159 | 3.2 | 4.8 | 0.03 | 0.61 | 0.03 | 83 | 1018.0 |
| 20260905164702 | 23 | 222 | 1.6 | 3.2 | 0.03 | 0.61 | 0.03 | 82 | 1018.1 |
| 20260905163702 | 24 | 70 | 3.2 | 4.8 | 0.03 | 0.61 | 0.03 | 80 | 1018.3 |
| 20260905163203 | 24 | 41 | 1.6 | 4.8 | 0.03 | 0.61 | 0.03 | 79 | 1018.6 |
| 20260905162703 | 25 | 81 | 1.6 | 4.8 | 0.03 | 0.61 | 0.03 | 78 | 1018.5 |
| 20260905161702 | 25 | 6 | 8.0 | 19.3 | 0.00 | 0.58 | 0.00 | 73 | 1018.5 |
| 20260905161202 | 26 | 16 | 11.3 | 27.4 | 0.00 | 0.58 | 0.00 | 73 | 1018.2 |
| 20260905160702 | 26 | 22 | 8.0 | 22.5 | 0.00 | 0.58 | 0.00 | 77 | 1018.1 |
| 20260905160203 | 27 | 26 | 12.9 | 27.4 | 0.00 | 0.58 | 0.00 | 77 | 1017.9 |
| 20260905155702 | 27 | 13 | 8.0 | 19.3 | 0.00 | 0.58 | 0.00 | 79 | 1018.0 |
| 20260905155203 | 28 | 342 | 3.2 | 4.8 | 0.00 | 0.58 | 0.00 | 78 | 1017.5 |
| 20260905154702 | 28 | 359 | 3.2 | 4.8 | 0.00 | 0.58 | 0.00 | 77 | 1017.4 |
| 20260905153703 | 28 | 0 | 1.6 | 3.2 | 0.00 | 0.58 | 0.00 | 76 | 1017.7 |
| 20260905153202 | 28 | 33 | 1.6 | 3.2 | 0.00 | 0.58 | 0.00 | 73 | 1017.7 |
| 20260905152702 | 28 | 12 | 1.6 | 4.8 | 0.00 | 0.58 | 0.00 | 74 | 1017.7 |
| 20260905152202 | 28 | 31 | 1.6 | 4.8 | 0.00 | 0.58 | 0.00 | 76 | 1017.7 |
| 20260905151702 | 28 | 203 | 3.2 | 4.8 | 0.00 | 0.58 | 0.00 | 76 | 1017.6 |
| 20260905150702 | 28 | 225 | 3.2 | 4.8 | 0.00 | 0.58 | 0.00 | 78 | 1017.4 |
| 20260905145703 | 28 | 51 | 1.6 | 4.8 | 0.00 | 0.58 | 0.00 | 78 | 1017.4 |
| 20260905144703 | 28 | 56 | 3.2 | 4.8 | 0.00 | 0.58 | 0.00 | 78 | 1017.2 |
| 20260905144202 | 28 | 323 | 3.2 | 4.8 | 0.00 | 0.58 | 0.00 | 79 | 1017.2 |
| 20260905143703 | 27 | 257 | 1.6 | 4.8 | 0.00 | 0.58 | 0.00 | 80 | 1017.2 |
| 20260905143203 | 27 | 150 | 3.2 | 4.8 | 0.00 | 0.58 | 0.00 | 82 | 1017.1 |
| 20260905141702 | 26 | 132 | 1.6 | 4.8 | 0.00 | 0.58 | 0.00 | 84 | 1017.3 |
| 20260905141202 | 26 | 40 | 3.2 | 4.8 | 0.00 | 0.58 | 0.00 | 86 | 1017.3 |
| 20260905140702 | 25 | 174 | 1.6 | 3.2 | 0.00 | 0.58 | 0.00 | 88 | 1017.3 |
| 20260905140202 | 25 | 36 | 1.6 | 4.8 | 0.00 | 0.58 | 0.00 | 90 | 1017.5 |
| 20260905135703 | 25 | 187 | 1.6 | 4.8 | 0.00 | 0.58 | 0.00 | 90 | 1017.5 |
| 20260905135202 | 24 | 57 | 3.2 | 4.8 | 0.00 | 0.58 | 0.00 | 92 | 1017.5 |
| 20260905134703 | 24 | 289 | 3.2 | 4.8 | 0.00 | 0.58 | 0.00 | 94 | 1017.5 |
| 20260905134203 | 24 | 40 | 1.6 | 4.8 | 0.00 | 0.58 | 0.00 | 94 | 1017.4 |
| 20260905133702 | 23 | 20 | 1.6 | 4.8 | 0.00 | 0.58 | 0.00 | 94 | 1017.4 |
| 20260905133203 | 23 | 358 | 1.6 | 4.8 | 0.00 | 0.58 | 0.00 | 95 | 1017.4 |
| 20260905132702 | 23 | 40 | 1.6 | 3.2 | 0.00 | 0.58 | 0.00 | 95 | 1017.4 |
| 20260905131202 | 22 | 137 | 1.6 | 4.8 | 0.00 | 0.58 | 0.00 | 95 | 1017.5 |
| 20260905130703 | 22 | 225 | 1.6 | 4.8 | 0.00 | 0.58 | 0.00 | 95 | 1017.6 |
| 20260905125703 | 22 | 106 | 1.6 | 4.8 | 0.00 | 0.58 | 0.00 | 95 | 1017.7 |
| 20260905125203 | 22 | 42 | 1.6 | 4.8 | 0.00 | 0.58 | 0.00 | 95 | 1017.7 |
| 20260905124702 | 21 | 355 | 1.6 | 3.2 | 0.00 | 0.58 | 0.00 | 95 | 1017.8 |
| 20260905124202 | 21 | 40 | 1.6 | 3.2 | 0.00 | 0.58 | 0.00 | 95 | 1017.7 |
| 20260905123703 | 21 | 14 | 0.0 | 4.8 | 0.00 | 0.58 | 0.00 | 95 | 1017.8 |
| 20260905123202 | 21 | 116 | 1.6 | 3.2 | 0.00 | 0.58 | 0.00 | 95 | 1017.8 |
| 20260905122703 | 21 | 98 | 1.6 | 3.2 | 0.00 | 0.58 | 0.00 | 95 | 1017.7 |
| 20260905122202 | 21 | 92 | 1.6 | 3.2 | 0.00 | 0.58 | 0.00 | 95 | 1017.6 |
| 20260905121703 | 21 | 210 | 1.6 | 4.8 | 0.00 | 0.58 | 0.00 | 95 | 1017.6 |
| 20260905121203 | 21 | 193 | 1.6 | 4.8 | 0.00 | 0.58 | 0.00 | 95 | 1017.5 |
| 20260905120702 | 21 | 66 | 0.0 | 3.2 | 0.00 | 0.58 | 0.00 | 95 | 1017.6 |
| 20260905120203 | 20 | 298 | 0.0 | 3.2 | 0.00 | 0.58 | 0.00 | 95 | 1017.6 |
| 20260905115702 | 20 | 23 | 1.6 | 1.6 | 0.00 | 0.58 | 0.00 | 95 | 1017.5 |
| 20260905115202 | 20 | 284 | 1.6 | 4.8 | 0.00 | 0.58 | 0.00 | 95 | 1017.4 |
| 20260905114703 | 20 | 248 | 1.6 | 3.2 | 0.00 | 0.58 | 0.00 | 95 | 1017.3 |
| 20260905114202 | 20 | 86 | 0.0 | 3.2 | 0.00 | 0.58 | 0.00 | 95 | 1017.4 |
| 20260905113703 | 20 | 163 | 1.6 | 3.2 | 0.00 | 0.58 | 0.00 | 94 | 1017.3 |
| 20260905112702 | 20 | 167 | 0.0 | 1.6 | 0.00 | 0.58 | 0.00 | 94 | 1017.3 |
| 20260905112203 | 20 | 299 | 0.0 | 1.6 | 0.00 | 0.58 | 0.00 | 94 | 1017.3 |
| 20260905111202 | 20 | 323 | 1.6 | 1.6 | 0.00 | 0.58 | 0.00 | 94 | 1017.3 |
| 20260905110703 | 20 | 322 | 1.6 | 1.6 | 0.00 | 0.58 | 0.00 | 94 | 1017.2 |
| 20260905110203 | 20 | 353 | 0.0 | 1.6 | 0.00 | 0.58 | 0.00 | 94 | 1017.1 |
| 20260905105203 | 20 | 345 | 1.6 | 1.6 | 0.00 | 0.58 | 0.00 | 94 | 1016.9 |
| 20260905104203 | 20 | 318 | 0.0 | 1.6 | 0.00 | 0.58 | 0.00 | 94 | 1016.8 |
| 20260905102703 | 20 | 258 | 0.0 | 1.6 | 0.00 | 0.58 | 0.00 | 94 | 1016.7 |